Вернуться в каталог

STARLINK-32096

АктивенСвязьVLEO
NORAD 59698·PAYLOAD·🇺🇸 United States

Запущен May 8, 2024 с Cape Canaveral Space Force Station

Loading…

Ближайшие Пролёты (ближайшие 24 часа)

TLE

СвежийSource: CelesTrak SupGP

Эпоха: Sep 15, 2026, 02:31 UTC

1 59698C 24086S   26258.10534722 -.00019346  00000+0 -70075-3 0  2588
2 59698  43.0022  70.1447 0001539 270.9477 359.9674 15.27585570    16

Отслеживайте STARLINK-32096 в реальном времени с AllMySat

Download on the App Store